GW6653 Weather Reports


time (UTC)temp
F
wind
direction
speed
knots
gust
knots
rain 1hr
in
rain 24hr
in
rain mn
in
humidity
%
barometer
mb
20260510180229 85 232 1.7 2.6 0.00 0.00 0.00 36 1007.5
20260510175730 85 282 0.9 2.6 0.00 0.00 0.00 35 1007.8
20260510175229 84 291 0.0 3.5 0.00 0.00 0.00 35 1007.8
20260510174730 85 159 1.7 2.6 0.00 0.00 0.00 34 1007.8
20260510174230 85 302 0.0 2.6 0.00 0.00 0.00 33 1007.8
20260510173730 85 271 0.9 1.7 0.00 0.00 0.00 35 1007.8
20260510173230 86 352 0.0 2.6 0.00 0.00 0.00 36 1007.8
20260510172729 85 127 1.7 1.7 0.00 0.00 0.00 35 1007.8
20260510172230 85 205 2.6 2.6 0.00 0.00 0.00 36 1007.8
20260510171731 86 23 0.9 2.6 0.00 0.00 0.00 36 1007.8
20260510171230 84 313 0.9 2.6 0.00 0.00 0.00 35 1007.8
20260510170731 84 318 1.7 1.7 0.00 0.00 0.00 36 1007.8
20260510170230 85 250 0.9 1.7 0.00 0.00 0.00 41 1008.1
20260510165731 84 286 0.9 3.5 0.00 0.00 0.00 36 1008.1
20260510165229 83 215 1.7 2.6 0.00 0.00 0.00 37 1008.1
20260510164729 85 154 2.6 3.5 0.00 0.00 0.00 42 1008.1
20260510164230 84 284 0.0 0.0 0.00 0.00 0.00 37 1008.1
20260510163730 85 169 1.7 3.5 0.00 0.00 0.00 38 1008.1
20260510163230 86 307 0.0 0.9 0.00 0.00 0.00 35 1008.1
20260510162732 83 300 0.0 1.7 0.00 0.00 0.00 45 1008.1
20260510162229 83 314 0.0 2.6 0.00 0.00 0.00 35 1008.5
20260510161730 83 311 2.6 2.6 0.00 0.00 0.00 39 1008.5
20260510161232 83 346 0.9 2.6 0.00 0.00 0.00 39 1008.5
20260510160731 83 289 0.9 1.7 0.00 0.00 0.00 40 1008.5
20260510160235 82 207 2.6 2.6 0.00 0.00 0.00 39 1008.5
20260510155729 83 319 0.0 2.6 0.00 0.00 0.00 50 1008.5
20260510155230 83 198 0.9 2.6 0.00 0.00 0.00 38 1008.5
20260510154729 82 292 0.0 0.9 0.00 0.00 0.00 42 1008.8
20260510154229 82 331 0.0 1.7 0.00 0.00 0.00 42 1008.8
20260510153730 81 328 0.9 2.6 0.00 0.00 0.00 43 1008.8
20260510153232 82 319 0.0 0.0 0.00 0.00 0.00 45 1008.8
20260510152731 82 312 0.0 0.0 0.00 0.00 0.00 42 1008.8
20260510152231 82 322 0.9 1.7 0.00 0.00 0.00 44 1008.8
20260510151729 81 323 0.0 2.6 0.00 0.00 0.00 48 1008.8
20260510151229 82 270 0.0 1.7 0.00 0.00 0.00 45 1008.8
20260510150730 81 316 1.7 1.7 0.00 0.00 0.00 45 1008.8
20260510150231 81 156 0.9 2.6 0.00 0.00 0.00 42 1009.1
20260510145730 80 293 0.9 2.6 0.00 0.00 0.00 45 1009.1
20260510145230 81 279 0.9 0.9 0.00 0.00 0.00 44 1008.8
20260510144729 80 194 2.6 3.5 0.00 0.00 0.00 45 1008.8
20260510144229 80 281 0.0 2.6 0.00 0.00 0.00 46 1008.8
20260510143242 79 307 0.9 1.7 0.00 0.00 0.00 46 1008.8
20260510142729 78 320 0.0 1.7 0.00 0.00 0.00 52 1008.8
20260510142229 78 104 0.0 0.0 0.00 0.00 0.00 52 1008.5
20260510141729 77 318 0.0 0.0 0.00 0.00 0.00 51 1008.8
20260510141229 76 327 0.0 0.0 0.00 0.00 0.00 51 1008.5
20260510140730 76 322 0.9 1.7 0.00 0.00 0.00 54 1008.5
20260510140230 75 335 0.0 1.7 0.00 0.00 0.00 53 1008.5
20260510135729 76 301 0.0 1.7 0.00 0.00 0.00 54 1008.8
20260510135229 75 325 0.0 0.9 0.00 0.00 0.00 59 1008.5
20260510134732 75 289 0.0 0.0 0.00 0.00 0.00 59 1008.5
20260510134230 73 327 0.9 1.7 0.00 0.00 0.00 58 1008.5
20260510133731 74 323 0.0 1.7 0.00 0.00 0.00 57 1008.5
20260510133231 73 319 0.0 0.0 0.00 0.00 0.00 64 1008.5
20260510132729 73 339 0.0 0.0 0.00 0.00 0.00 62 1008.5
20260510132230 73 328 0.0 0.0 0.00 0.00 0.00 61 1008.8
20260510131730 72 311 0.0 0.0 0.00 0.00 0.00 61 1008.8
20260510131230 71 343 0.0 0.0 0.00 0.00 0.00 67 1008.8
20260510130731 71 325 0.0 0.0 0.00 0.00 0.00 66 1008.8
20260510130231 69 309 0.0 0.0 0.00 0.00 0.00 67 1008.5
20260510125730 69 324 0.0 0.0 0.00 0.00 0.00 69 1008.5
20260510125229 68 324 0.0 0.0 0.00 0.00 0.00 71 1008.5
20260510124731 67 305 0.0 0.0 0.00 0.00 0.00 71 1008.5
20260510124229 66 312 0.0 0.0 0.00 0.00 0.00 76 1008.5
20260510123730 65 317 0.0 0.0 0.00 0.00 0.00 79 1008.1
20260510123230 63 293 0.0 0.0 0.00 0.00 0.00 82 1008.5
20260510122731 61 308 0.0 0.0 0.00 0.00 0.00 95 1008.5
20260510122230 61 304 0.0 0.0 0.00 0.00 0.00 96 1008.1
20260510121730 60 312 0.0 0.0 0.00 0.00 0.00 96 1008.1
20260510121232 60 318 0.0 0.0 0.00 0.00 0.00 96 1008.1
20260510120732 59 305 0.0 0.0 0.00 0.00 0.00 96 1008.1
20260510120230 59 300 0.0 0.0 0.00 0.00 0.00 96 1008.1
20260510115729 58 305 0.0 0.0 0.00 0.00 0.00 96 1007.8
20260510115229 57 309 0.0 0.0 0.00 0.00 0.00 96 1007.8
20260510114729 57 317 0.0 0.0 0.00 0.00 0.00 96 1007.8
20260510114229 56 319 0.0 0.0 0.00 0.00 0.00 96 1007.8
20260510113731 56 304 0.0 0.0 0.00 0.00 0.00 96 1007.8
20260510113231 55 285 0.0 0.0 0.00 0.00 0.00 96 1007.5
20260510112730 55 312 0.0 0.0 0.00 0.00 0.00 95 1007.5
20260510112229 55 309 0.0 0.0 0.00 0.00 0.00 95 1007.5
20260510111730 54 310 0.0 0.0 0.00 0.00 0.00 95 1007.1
20260510111229 54 317 0.0 0.0 0.00 0.00 0.00 95 1007.1
20260510110730 54 311 0.0 0.0 0.00 0.00 0.00 95 1007.1
20260510110230 54 309 0.0 0.0 0.00 0.00 0.00 95 1007.1
20260510105729 54 306 0.0 0.0 0.00 0.00 0.00 95 1007.1
20260510105230 53 310 0.0 0.0 0.00 0.00 0.00 95 1007.1
20260510104730 53 313 0.0 0.0 0.00 0.00 0.00 95 1007.1
20260510104230 53 304 0.0 0.0 0.00 0.00 0.00 95 1007.1
20260510103729 53 309 0.0 0.0 0.00 0.00 0.00 94 1007.1
20260510103229 53 304 0.0 0.0 0.00 0.00 0.00 94 1006.8
20260510102729 53 304 0.0 0.0 0.00 0.00 0.00 94 1006.8
20260510102230 54 304 0.0 0.0 0.00 0.00 0.00 94 1006.8
20260510101729 54 296 0.0 0.0 0.00 0.00 0.00 94 1006.8
20260510101230 54 304 0.0 0.0 0.00 0.00 0.00 94 1006.8
20260510100730 54 304 0.0 0.0 0.00 0.00 0.00 94 1006.8
20260510100230 54 302 0.0 0.0 0.00 0.00 0.00 94 1006.4
20260510095729 54 296 0.0 0.0 0.00 0.00 0.00 94 1006.1
20260510095230 54 300 0.0 0.0 0.00 0.00 0.00 94 1006.1
20260510094732 54 308 0.0 0.0 0.00 0.00 0.00 94 1006.1
20260510094229 55 297 0.0 0.0 0.00 0.00 0.00 94 1006.1
20260510093730 55 300 0.0 0.0 0.00 0.00 0.00 93 1006.1
20260510093231 55 310 0.0 0.0 0.00 0.00 0.00 93 1005.8
20260510092729 55 311 0.0 0.0 0.00 0.00 0.00 93 1005.8
20260510092232 55 310 0.0 0.0 0.00 0.00 0.00 93 1006.1
20260510091730 55 306 0.0 0.0 0.00 0.00 0.00 93 1006.1
20260510091229 55 320 0.0 0.0 0.00 0.00 0.00 93 1006.1
20260510090729 56 300 0.0 0.0 0.00 0.00 0.00 93 1006.1
20260510090229 56 306 0.0 0.0 0.00 0.00 0.00 93 1005.8
20260510085729 56 302 0.0 0.0 0.00 0.00 0.00 93 1005.8
20260510085230 56 303 0.0 0.0 0.00 0.00 0.00 93 1005.8
20260510084729 56 300 0.0 0.0 0.00 0.00 0.00 93 1005.4
20260510084230 56 304 0.0 0.0 0.00 0.00 0.00 93 1005.4
20260510083729 56 311 0.0 0.0 0.00 0.00 0.00 93 1005.4
20260510083229 57 314 0.0 0.0 0.00 0.00 0.00 93 1005.4
20260510082729 57 297 0.0 0.0 0.00 0.00 0.00 92 1005.8
20260510082230 57 313 0.0 0.0 0.00 0.00 0.00 92 1005.8
20260510081730 57 306 0.0 0.0 0.00 0.00 0.00 92 1005.8
20260510081230 57 302 0.0 0.0 0.00 0.00 0.00 92 1005.8
20260510080730 57 312 0.0 0.0 0.00 0.00 0.00 92 1005.4
20260510080229 57 307 0.0 0.0 0.00 0.00 0.00 92 1005.4
20260510075729 57 305 0.0 0.0 0.00 0.00 0.00 92 1005.4
20260510075229 58 304 0.0 0.0 0.00 0.00 0.00 92 1005.4
20260510074737 58 300 0.0 0.0 0.00 0.00 0.00 92 1005.4
20260510074230 58 300 0.0 0.0 0.00 0.00 0.00 91 1005.4
20260510073730 58 305 0.0 0.0 0.00 0.00 0.00 91 1005.4
20260510073229 58 308 0.0 0.0 0.00 0.00 0.00 91 1005.1
20260510072729 58 306 0.0 0.0 0.00 0.00 0.00 91 1005.1
20260510072229 59 309 0.0 0.0 0.00 0.00 0.00 91 1005.1
20260510071729 59 315 0.0 0.0 0.00 0.00 0.00 91 1005.1
20260510071230 59 313 0.0 0.0 0.00 0.00 0.00 90 1005.4
20260510070731 59 316 0.0 0.0 0.00 0.00 0.00 90 1005.4
20260510070231 59 312 0.0 0.0 0.00 0.00 0.00 90 1005.1
20260510065730 60 299 0.0 0.0 0.00 0.00 0.00 90 1005.1
20260510065231 60 296 0.0 0.0 0.00 0.00 0.00 90 1005.4
20260510064729 60 308 0.0 0.0 0.00 0.00 0.00 89 1005.4
20260510064229 60 309 0.0 0.0 0.00 0.00 0.00 89 1005.1
20260510063729 60 319 0.0 0.0 0.00 0.00 0.00 89 1005.1
20260510063231 60 312 0.0 0.0 0.00 0.00 0.00 89 1005.4
20260510062730 60 313 0.0 0.0 0.00 0.00 0.00 88 1005.4
20260510062230 60 311 0.0 0.0 0.00 0.00 0.00 88 1005.4
20260510061730 61 312 0.0 0.0 0.00 0.00 0.00 88 1005.4
20260510061230 61 307 0.0 0.0 0.00 0.00 0.00 88 1005.4
20260510060729 61 315 0.0 0.0 0.00 0.00 0.00 88 1005.4
20260510060230 61 297 0.0 0.0 0.00 0.00 0.00 88 1005.4
20260510055730 61 317 0.0 0.0 0.00 0.00 0.00 88 1005.4
20260510055229 61 319 0.0 0.0 0.00 0.00 0.00 88 1005.4
20260510054730 62 327 0.0 0.0 0.00 0.00 0.00 88 1005.4
20260510054229 62 314 0.0 0.0 0.00 0.00 0.00 88 1005.4
20260510053729 62 313 0.0 0.9 0.00 0.00 0.00 87 1005.4
20260510053229 62 314 0.0 0.0 0.00 0.00 0.00 87 1005.4
20260510052729 62 319 0.0 0.0 0.00 0.00 0.00 87 1005.4
20260510052230 62 269 0.0 0.0 0.00 0.00 0.00 87 1005.4
20260510051731 62 309 0.0 0.0 0.00 0.00 0.00 87 1005.4
20260510051230 62 311 0.0 0.0 0.00 0.00 0.00 87 1005.4
20260510050730 62 285 0.0 0.0 0.00 0.00 0.00 87 1005.4
20260510050232 62 300 0.0 0.0 0.00 0.00 0.00 87 1005.4
20260510045730 61 297 0.0 0.0 0.00 0.00 0.00 87 1005.4
20260510045229 61 284 0.0 0.0 0.00 0.00 0.00 86 1005.4
20260510044731 61 310 0.0 0.0 0.00 0.00 0.00 86 1005.4
20260510044230 61 312 0.0 0.0 0.00 0.00 0.00 85 1005.4
20260510043730 61 288 0.0 0.0 0.00 0.00 0.00 85 1005.4
20260510043231 61 316 0.0 0.0 0.00 0.00 0.00 84 1005.4
20260510042729 61 315 0.0 0.0 0.00 0.00 0.00 84 1005.4
20260510042231 61 307 0.0 0.0 0.00 0.00 0.00 83 1005.4
20260510041730 61 306 0.0 0.0 0.00 0.00 0.00 83 1005.4
20260510041229 61 304 0.0 0.0 0.00 0.00 0.00 83 1005.4
20260510040733 61 305 0.0 0.0 0.00 0.00 0.00 83 1005.4
20260510040229 61 317 0.0 0.0 0.00 0.00 0.00 83 1005.4
20260510035729 61 306 0.0 0.0 0.00 0.00 0.00 82 1005.1
20260510035231 61 304 0.0 0.0 0.00 0.00 0.00 82 1005.1
20260510034729 61 303 0.0 0.0 0.00 0.00 0.00 82 1005.1
20260510034230 61 305 0.0 0.0 0.00 0.00 0.00 82 1005.1
20260510033731 61 299 0.0 0.0 0.00 0.00 0.00 81 1005.1
20260510033229 61 303 0.0 0.0 0.00 0.00 0.00 81 1005.1
20260510032729 62 302 0.0 0.0 0.00 0.00 0.00 81 1005.1
20260510032229 62 299 0.0 0.0 0.00 0.00 0.00 81 1005.1
20260510031732 62 320 0.0 0.0 0.00 0.00 0.00 80 1005.1
20260510031229 62 300 0.0 0.0 0.00 0.00 0.00 80 1005.1
20260510030731 62 318 0.0 0.0 0.00 0.00 0.00 80 1005.1
20260510030229 62 322 0.0 0.0 0.00 0.00 0.00 79 1005.1
20260510025730 62 307 0.0 0.0 0.00 0.00 0.00 79 1005.1
20260510025230 62 310 0.0 0.0 0.00 0.00 0.00 78 1005.1
20260510024729 62 312 0.0 0.0 0.00 0.00 0.00 78 1005.1
20260510024229 63 307 0.0 0.0 0.00 0.00 0.00 78 1005.1
20260510023729 63 308 0.0 0.0 0.00 0.00 0.00 78 1004.7
20260510023231 63 301 0.0 0.0 0.00 0.00 0.00 78 1005.1
20260510022731 63 304 0.0 0.0 0.00 0.00 0.00 77 1004.7
20260510022230 63 303 0.0 0.0 0.00 0.00 0.00 77 1004.7
20260510021729 63 302 0.0 0.0 0.00 0.00 0.00 76 1004.7
20260510021230 63 303 0.0 0.0 0.00 0.00 0.00 76 1004.7
20260510020730 63 310 0.0 0.0 0.00 0.00 0.00 76 1004.4
20260510020229 64 307 0.0 0.0 0.00 0.00 0.00 75 1004.4
20260510015729 64 307 0.0 0.0 0.00 0.00 0.00 75 1004.4
20260510015229 64 288 0.0 0.0 0.00 0.00 0.00 74 1004.4
20260510014733 64 303 0.0 0.0 0.00 0.00 0.00 74 1004.1
20260510014229 64 303 0.0 0.0 0.00 0.00 0.00 73 1004.1
20260510013729 65 301 0.0 0.0 0.00 0.00 0.00 73 1004.1
20260510013229 65 304 0.0 0.0 0.00 0.00 0.00 73 1004.1
20260510012729 65 312 0.0 0.0 0.00 0.00 0.00 73 1004.1
20260510012229 65 309 0.0 0.0 0.00 0.00 0.00 72 1004.1
20260510011731 65 307 0.0 0.0 0.00 0.00 0.00 72 1004.1
20260510011229 65 302 0.0 0.0 0.00 0.00 0.00 72 1004.1
20260510010730 65 302 0.0 0.0 0.00 0.00 0.00 71 1003.7
20260510010229 66 301 0.0 0.0 0.00 0.00 0.00 71 1003.7
20260510005731 66 303 0.0 0.0 0.00 0.00 0.00 71 1003.7
20260510005229 66 303 0.0 0.0 0.00 0.00 0.00 71 1003.7
20260510004731 67 307 0.0 0.0 0.00 0.00 0.00 70 1003.7
20260510004229 67 304 0.0 0.0 0.00 0.00 0.00 69 1003.7
20260510003729 67 303 0.0 0.0 0.00 0.00 0.00 69 1003.7
20260510003230 67 306 0.0 0.0 0.00 0.00 0.00 68 1003.4
20260510002729 68 304 0.0 0.0 0.00 0.00 0.00 68 1003.4
20260510002229 68 301 0.0 0.0 0.00 0.00 0.00 67 1003.4
20260510001730 68 300 0.0 0.0 0.00 0.00 0.00 67 1003.4
20260510001229 69 298 0.0 0.0 0.00 0.00 0.00 66 1003.4
20260510000729 69 303 0.0 0.0 0.00 0.00 0.00 66 1003.0
20260510000229 70 302 0.0 0.0 0.00 0.00 0.00 65 1003.0
20260509235730 70 303 0.0 0.0 0.00 0.00 0.00 64 1003.0
20260509235230 70 299 0.0 0.0 0.00 0.00 0.00 64 1003.0
20260509234730 71 304 0.0 0.0 0.00 0.00 0.00 63 1003.0
20260509234229 71 295 0.0 0.0 0.00 0.00 0.00 63 1003.0
20260509233729 71 301 0.0 0.0 0.00 0.00 0.00 62 1002.7
20260509233229 71 304 0.0 0.0 0.00 0.00 0.00 62 1002.7
20260509232730 72 311 0.0 0.0 0.00 0.00 0.00 61 1003.0
20260509232231 72 300 0.0 0.0 0.00 0.00 0.00 61 1003.0
20260509231730 72 328 0.0 0.0 0.00 0.00 0.00 60 1003.0
20260509231229 73 315 0.0 0.0 0.00 0.00 0.00 59 1003.0
20260509230729 73 295 0.0 0.0 0.00 0.00 0.00 58 1003.0
20260509230229 73 305 0.0 0.0 0.00 0.00 0.00 58 1003.0
20260509225731 74 311 0.0 0.0 0.00 0.00 0.00 58 1003.0
20260509225230 74 277 0.0 0.0 0.00 0.00 0.00 57 1002.7
20260509224729 74 293 0.0 0.0 0.00 0.00 0.00 56 1002.7
20260509224229 75 321 0.0 1.7 0.00 0.00 0.00 56 1002.7
20260509223729 75 311 0.0 0.0 0.00 0.00 0.00 56 1002.7
20260509223229 75 283 0.0 1.7 0.00 0.00 0.00 54 1002.7
20260509222729 75 335 0.0 0.9 0.00 0.00 0.00 55 1002.7
20260509222230 75 288 0.0 0.0 0.00 0.00 0.00 54 1002.7
20260509221729 75 320 0.0 2.6 0.00 0.00 0.00 53 1002.7
20260509221229 75 17 0.9 2.6 0.00 0.00 0.00 53 1002.7
20260509220731 75 322 0.0 0.9 0.00 0.00 0.00 54 1002.7
20260509220230 75 298 0.0 1.7 0.00 0.00 0.00 54 1002.7
20260509215729 76 331 0.0 2.6 0.00 0.00 0.00 53 1002.7
20260509215229 76 297 0.0 1.7 0.00 0.00 0.00 52 1002.7
20260509214729 76 325 0.0 1.7 0.00 0.00 0.00 52 1002.7
20260509214229 76 304 0.0 2.6 0.00 0.00 0.00 50 1002.7
20260509213729 77 286 0.0 0.9 0.00 0.00 0.00 51 1002.4
20260509213231 77 312 1.7 1.7 0.00 0.00 0.00 51 1002.7
20260509212730 77 330 0.0 1.7 0.00 0.00 0.00 52 1002.4
20260509212230 76 304 0.0 0.9 0.00 0.00 0.00 52 1002.4
20260509211729 76 304 0.0 0.9 0.00 0.00 0.00 53 1002.4
20260509211230 76 352 1.7 2.6 0.00 0.00 0.00 53 1002.4
20260509210731 75 321 0.0 3.5 0.00 0.00 0.00 52 1002.4
20260509210231 75 247 1.7 1.7 0.00 0.00 0.00 53 1002.4
20260509205731 75 359 1.7 1.7 0.00 0.00 0.00 53 1002.4
20260509205230 75 21 1.7 2.6 0.00 0.00 0.00 54 1002.4
20260509204732 75 259 0.0 2.6 0.00 0.00 0.00 54 1002.4
20260509204230 75 288 0.0 1.7 0.00 0.00 0.00 57 1002.4
20260509203730 75 298 0.9 0.9 0.00 0.00 0.00 55 1002.4
20260509203231 75 80 1.7 2.6 0.00 0.00 0.00 55 1002.4
20260509202730 75 283 0.0 1.7 0.00 0.00 0.00 55 1002.4
20260509202229 75 317 1.7 1.7 0.00 0.00 0.00 57 1002.4
20260509201730 75 338 1.7 2.6 0.00 0.00 0.00 56 1002.4
20260509201229 74 167 0.0 0.9 0.00 0.00 0.00 57 1002.7
20260509200732 74 311 0.0 0.0 0.00 0.00 0.00 59 1002.7
20260509200229 74 301 0.0 1.7 0.00 0.00 0.00 58 1002.7
20260509195730 74 313 0.0 1.7 0.00 0.00 0.00 58 1002.7
20260509195230 74 304 0.0 0.0 0.00 0.00 0.00 57 1003.0
20260509194731 74 61 0.0 0.9 0.00 0.00 0.00 56 1003.0
20260509194229 74 306 0.9 1.7 0.00 0.00 0.00 55 1003.0
20260509193730 75 318 0.0 2.6 0.00 0.00 0.00 53 1003.0
20260509193229 75 267 0.0 2.6 0.00 0.00 0.00 53 1003.0
20260509192731 75 312 0.0 0.0 0.00 0.00 0.00 54 1003.0
20260509192229 75 276 0.9 2.6 0.00 0.00 0.00 55 1003.0
20260509191731 74 302 0.0 2.6 0.00 0.00 0.00 56 1003.4
20260509191231 74 0 0.9 1.7 0.00 0.00 0.00 56 1003.4
20260509190729 73 299 0.0 0.9 0.00 0.00 0.00 57 1003.4
20260509190231 74 333 0.0 0.9 0.00 0.00 0.00 55 1003.4
20260509185731 74 346 0.0 1.7 0.00 0.00 0.00 54 1003.4
20260509185231 74 31 1.7 2.6 0.00 0.00 0.00 55 1003.4
20260509184731 73 324 0.0 2.6 0.00 0.00 0.00 55 1003.7
20260509184230 73 274 0.0 0.0 0.00 0.00 0.00 55 1003.7
20260509183729 73 318 0.0 2.6 0.00 0.00 0.00 54 1003.7
20260509183230 73 315 0.0 2.6 0.00 0.00 0.00 53 1003.7
20260509182730 74 6 0.0 1.7 0.00 0.00 0.00 52 1003.7
20260509182231 74 349 1.7 3.5 0.00 0.00 0.00 53 1003.7
20260509181730 74 308 0.9 0.9 0.00 0.00 0.00 54 1004.1
20260509181230 75 315 0.9 1.7 0.00 0.00 0.00 51 1004.1
20260509180731 76 318 0.0 2.6 0.00 0.00 0.00 48 1004.1